Terminal Aerodrome Forecast
Issued by NWS

Home | Current Version | Previous Version | Graphics & Text | Print | Product List | Glossary On
Versions: 1 2 3 4 5 6 7 8 9 10 11 12 13 14 15 16
000
FTUS43 KABR 172100 AAA
TAFMBG
TAF AMD
KMBG 172105Z 1721/1818 14006KT P6SM SCT040 SCT100
     FM180000 18006KT P6SM VCTS BKN040CB
     FM180400 32006KT P6SM SKC=

USA.gov is the U.S. government's official web portal to all federal, state and local government web resources and services.